Regional Weather Roundup
Issued by NWS Green Bay, WI

Home | Current Version | Previous Version | Text Only | Print | Product List | Glossary On
Versions: 1 2 3 4 5 6 7 8 9 10 11 12 13 14 15 16 17 18 19 20 21 22 23 24 25 26 27 28 29 30 31 32 33 34 35 36 37 38 39 40 41 42 43 44 45 46 47 48 49 50
000
ASUS43 KGRB 201111
RWRGRB

NORTH-CENTRAL AND NORTHEAST WISCONSIN REGIONAL WEATHER ROUNDUP
NATIONAL WEATHER SERVICE GREEN BAY WI
500 AM CST MON FEB 20 2017

WIZ005-009-010>012-018-019-201200-
NORTH CENTRAL WISCONSIN

CITY           SKY/WX    TMP DP  RH WIND       PRES   REMARKS
IRONWOOD       CLOUDY    44  31  60 SE13G21   30.00R
MANITOWISH WTR MOCLDY    40  30  68 SE7       30.02S
ARBOR VITAE    PTCLDY    42  32  68 SE12      30.03F
EAGLE RIVER    CLOUDY    37  28  71 SE9       30.06S
LAND O LAKES   CLOUDY    39  30  71 SE9       30.07F
RHINELANDER    MOCLDY    39  30  70 SE10      30.06F
PHILLIPS       PTCLDY    40  32  73 SE8       30.00R
ANTIGO         PTCLDY    35  30  83 SE14      30.09R
TOMAHAWK       PTCLDY    38  29  70 SE6       30.05R
MERRILL        NOT AVBL
$$

WIZ013-073-201200-
NORTHEAST WISCONSIN

CITY           SKY/WX    TMP DP  RH WIND       PRES   REMARKS
IRON MOUNTAIN  CLOUDY    32  26  78 S3        30.15R
MARINETTE      CLOUDY    36  32  85 E8        30.16F
OCONTO         CLOUDY    32  30  92 CALM      30.14S
$$

WIZ017-030-035>037-045-201200-
CENTRAL WISCONSIN

CITY           SKY/WX    TMP DP  RH WIND       PRES   REMARKS
MEDFORD        CLOUDY    38  31  73 SE8       30.01R
WAUSAU         PTCLDY    37  29  72 E7        30.05S
MOSINEE        PTCLDY    37  30  75 E8        30.07R
MARSHFIELD     CLOUDY    40  31  70 E9        30.01S
WISC RAPIDS    CLOUDY    41  33  73 E7        30.04F
STEVENS POINT  MOCLDY    36  29  78 E7        30.07R
WAUPACA        PTCLDY    34  30  86 CALM      30.09F
SHAWANO        PTCLDY    33  31  90 CALM      30.13S
CLINTONVILLE   CLOUDY    32  30  93 NE5       30.11S
WAUTOMA        CLOUDY    35  30  82 NE5       30.08S
$$

WIZ038-039-048-051-201200-
FOX VALLEY

CITY           SKY/WX    TMP DP  RH WIND       PRES   REMARKS
NWS GREEN BAY  CLOUDY    35  32  88 NE8       30.13R
APPLETON       CLOUDY    39  27  60 E6        30.09S
OSHKOSH        PTCLDY    40  27  59 SE8       30.10S
FOND DU LAC    PTCLDY    43  28  55 SE13      30.10S
$$

WIZ022-050-052-201200-
EAST CENTRAL WISCONSIN

CITY           SKY/WX    TMP DP  RH WIND       PRES   REMARKS
EPHRAIM        FAIR      35  33  92 E8        30.15F
WASHINGTON ISL FAIR      36  32  83 E9        30.17F
STURGEON BAY   CLOUDY    37  33  85 SE9       30.16S
MANITOWOC      CLOUDY    30  28  92 MISG      30.16R
SHEBOYGAN      CLOUDY    31  29  92 NE3       30.14R
$$

LMZ563-521-522-541>543-201200-
LAKESHORE

STATION/POSITION TIME  TEMP    WIND        PRES    VSBY  WAVE
                       AIR SEA DIR/SP/G                  HT/PER
                 (UTC) (F)     (DEG/KT/KT) (MB)    (MI)  (FT/S)
SHEBOYGAN LKSHOR 1100   39     130/  2/  3 1021.3R
KEWAUNEE LKSHORE 1048   38      60/  2/  3 1020.5S
ALGOMA MARINA    1040             CALM       N/A
NORTHPORT PIER   1040   35      CALM  /  3 1022.0S
SISTER BAY LKSHO 1035   36     110/  9/ 13   N/A
CHAMBERS ISLAND  1040   35      70/  5/  6 1021.0F
MENOMINEE LKSHOR 1048   34      50/  9/ 11 1020.4F
$$



USA.gov is the U.S. government's official web portal to all federal, state and local government web resources and services.